Weather History for Phoenix Deer Valley, AZ

Change the Weather History Date:

Thursday, October 3, 2013

  Actual Average Record
Temperature  
Mean Temperature 77 °F -  
Max Temperature 88 °F 90 °F 97 °F (2012)
Min Temperature 66 °F 67 °F 53 °F (2002)
Cooling Degree Days 12    
Growing Degree Days 27 (Base 50)    
Moisture  
Dew Point 40 °F    
Average Humidity 28    
Maximum Humidity 39    
Minimum Humidity 15    
Precipitation  
Precipitation 0.00 in - - ()
Sea Level Pressure  
Sea Level Pressure 29.72 in    
Wind  
Wind Speed 6 mph (South)    
Max Wind Speed 13 mph    
Max Gust Speed 25 mph    
Visibility 10 miles    
Events      
Averages and records for this station are not official NWS values.
T = Trace of Precipitation, MM = Missing Value Source: NWS Daily Summary

Daily Weather History Graph

Daily Weather History Graph

Search for Another Location

Airport:

Trip Planner

Search our weather history database for the weather conditions in past years. The results will help you decide how hot, cold, wet, or windy it might be!

Date:

Astronomy

Oct. 03, 2013 Rise Set
Actual Time 6:24 AM MST 6:09 PM MST
Civil Twilight 5:59 AM MST 6:34 PM MST
Nautical Twilight 5:30 AM MST 7:03 PM MST
Astronomical Twilight 5:01 AM MST 7:32 PM MST
Moon 5:03 AM MST (10/3) 5:19 PM MST (10/3)
Length of Visible Light 12h 34m
Length of Day
11h 45m
Waning Crescent, 2% of the Moon is Illuminated
Oct 3
Waning Crescent
Oct 4
New
Oct 11
First Quarter
Oct 18
Full
Oct 26
Last Quarter

Hourly Weather History & Observations

Time (MST) Temp. Dew Point Humidity Pressure Visibility Wind Dir Wind Speed Gust Speed Precip Events Conditions
12:53 AM 69.1 °F 39.9 °F 35% 29.77 in 10.0 mi ESE 4.6 mph - N/A   Clear
1:53 AM 68.0 °F 39.9 °F 36% 29.76 in 10.0 mi Calm Calm - N/A   Clear
2:53 AM 68.0 °F 39.9 °F 36% 29.75 in 10.0 mi NNE 4.6 mph - N/A   Clear
3:53 AM 66.9 °F 41.0 °F 39% 29.75 in 10.0 mi East 3.5 mph - N/A   Clear
4:53 AM 69.1 °F 43.0 °F 39% 29.76 in 10.0 mi ESE 5.8 mph - N/A   Clear
5:53 AM 69.1 °F 42.1 °F 38% 29.77 in 10.0 mi East 8.1 mph - N/A   Clear
6:53 AM 69.1 °F 42.1 °F 38% 29.78 in 10.0 mi East 4.6 mph - N/A   Clear
7:53 AM 71.1 °F 45.0 °F 39% 29.78 in 10.0 mi East 5.8 mph - N/A   Clear
8:53 AM 75.9 °F 46.9 °F 36% 29.79 in 10.0 mi SE 11.5 mph - N/A   Clear
9:53 AM 77.0 °F 45.0 °F 32% 29.79 in 10.0 mi SSE 9.2 mph - N/A   Clear
10:53 AM 81.0 °F 42.1 °F 25% 29.78 in 10.0 mi SE 3.5 mph - N/A   Clear
11:53 AM 84.0 °F 37.9 °F 19% 29.75 in 10.0 mi South 9.2 mph - N/A   Clear
12:53 PM 87.1 °F 36.0 °F 16% 29.72 in 10.0 mi SSW 9.2 mph - N/A   Clear
1:53 PM 86.0 °F 36.0 °F 17% 29.69 in 10.0 mi South 4.6 mph - N/A   Clear
2:53 PM 88.0 °F 35.1 °F 15% 29.67 in 10.0 mi SW 10.4 mph 25.3 mph N/A   Clear
3:53 PM 88.0 °F 35.1 °F 15% 29.65 in 10.0 mi WSW 12.7 mph 20.7 mph N/A   Clear
4:53 PM 87.1 °F 36.0 °F 16% 29.64 in 10.0 mi SW 11.5 mph - N/A   Clear
5:53 PM 86.0 °F 36.0 °F 17% 29.63 in 10.0 mi WSW 10.4 mph - N/A   Clear
6:53 PM 82.9 °F 37.0 °F 19% 29.65 in 10.0 mi WSW 9.2 mph - N/A   Clear
7:53 PM 80.1 °F 39.9 °F 24% 29.66 in 10.0 mi WNW 4.6 mph - N/A   Clear
9:53 PM 75.0 °F 42.1 °F 31% 29.69 in 10.0 mi South 4.6 mph - N/A   Clear
10:53 PM 75.0 °F 44.1 °F 33% 29.70 in 10.0 mi WSW 8.1 mph - N/A   Clear
11:53 PM 73.9 °F 43.0 °F 33% 29.71 in 10.0 mi SW 3.5 mph - N/A   Clear